EW6329 Weather Reports


Display with metric or nautical units.
time (UTC)temp
F
wind
direction
speed
MPH
gust
MPH
rain 1hr
in
rain 24hr
in
rain mn
in
humidity
%
barometer
mb
20260504210043 79 327 0.0 6.0 0.00 0.00 0.00 38 1007.9
20260504204606 79 264 1.0 8.0 0.00 0.00 0.00 39 1008.1
20260504203005 80 307 1.0 5.0 0.00 0.00 0.00 38 1008.3
20260504201516 79 294 1.0 10.0 0.00 0.00 0.00 40 1008.6
20260504200031 79 123 0.0 4.0 0.00 0.00 0.00 42 1008.8
20260504194546 79 298 1.0 5.0 0.00 0.00 0.00 40 1009.0
20260504193059 79 276 0.0 4.0 0.00 0.00 0.00 41 1009.3
20260504191512 79 309 1.0 7.0 0.00 0.00 0.00 39 1009.7
20260504190020 79 293 1.0 6.0 0.00 0.00 0.00 39 1009.8
20260504184536 78 290 0.0 6.0 0.00 0.00 0.00 41 1010.0
20260504183047 78 300 1.0 9.0 0.00 0.00 0.00 41 1009.9
20260504181609 78 134 0.0 6.0 0.00 0.00 0.00 41 1010.1
20260504180010 78 263 1.0 7.0 0.00 0.00 0.00 44 1010.2
20260504174524 77 319 1.0 6.0 0.00 0.00 0.00 44 1010.5
20260504173035 77 317 2.0 9.0 0.00 0.00 0.00 44 1010.7
20260504171549 76 288 1.0 5.0 0.00 0.00 0.00 46 1010.8
20260504170104 75 271 1.0 6.0 0.00 0.00 0.00 46 1011.1
20260504081504 61 308 0.0 2.0 0.00 0.00 0.00 66 1011.9
20260504044554 60 355 0.0 2.0 0.00 0.00 0.00 60 1013.4
20260504043004 60 355 0.0 0.0 0.00 0.00 0.00 60 1013.4
20260504041515 60 355 0.0 0.0 0.00 0.00 0.00 59 1013.4
20260504040029 60 355 0.0 0.0 0.00 0.00 0.00 59 1013.5
20260504034542 61 355 0.0 0.0 0.00 0.00 0.00 58 1013.5
20260504033059 61 355 0.0 0.0 0.00 0.00 0.00 56 1013.8
20260504031505 61 355 0.0 0.0 0.00 0.00 0.00 56 1013.9
20260504030025 62 355 0.0 0.0 0.00 0.00 0.00 54 1014.0
20260504024534 62 355 0.0 2.0 0.00 0.00 0.00 53 1013.9
20260504023045 63 355 0.0 0.0 0.00 0.00 0.00 52 1013.7
20260504021559 64 355 0.0 0.0 0.00 0.00 0.00 50 1013.8
20260504020011 65 355 0.0 0.0 0.00 0.00 0.00 49 1013.6
20260504014533 65 355 0.0 0.0 0.00 0.00 0.00 47 1013.5
20260504013043 67 355 0.0 0.0 0.00 0.00 0.00 45 1013.4
20260504011548 68 355 0.0 0.0 0.00 0.00 0.00 44 1013.4
20260504010100 69 355 0.0 0.0 0.00 0.00 0.00 42 1013.3
20260504004510 70 355 0.0 0.0 0.00 0.00 0.00 41 1013.4
20260504003024 70 355 0.0 0.0 0.00 0.00 0.00 40 1013.4
20260504001553 71 355 0.0 2.0 0.00 0.00 0.00 40 1013.4
20260504000100 72 26 0.0 2.0 0.00 0.00 0.00 39 1013.5
20260503234606 72 306 0.0 2.0 0.00 0.00 0.00 36 1013.5
20260503233020 73 304 0.0 2.0 0.00 0.00 0.00 35 1013.8
20260503231526 73 304 1.0 4.0 0.00 0.00 0.00 34 1013.9
20260503230056 73 298 0.0 2.0 0.00 0.00 0.00 34 1013.9
20260503224601 73 315 0.0 4.0 0.00 0.00 0.00 34 1014.1
20260503223003 74 336 0.0 2.0 0.00 0.00 0.00 32 1014.3
20260503221513 73 336 0.0 4.0 0.00 0.00 0.00 33 1014.5
20260503220035 73 317 0.0 5.0 0.00 0.00 0.00 32 1014.6
20260503214540 73 315 0.0 3.0 0.00 0.00 0.00 29 1014.8
20260503213053 73 329 0.0 3.0 0.00 0.00 0.00 31 1014.9
20260503211502 73 152 0.0 2.0 0.00 0.00 0.00 34 1015.3